Change the Weather History Date:

Wednesday, March 12, 2014

  Actual Average (KGYR) Record (KGYR)
Temperature  
Mean Temperature 62 °F -  
Max Temperature 77 °F 75 °F 89 °F (1997)
Min Temperature 48 °F 49 °F 46 °F (1999)
Degree Days  
Heating Degree Days 2    
Growing Degree Days 12 (Base 50)    
Moisture  
Dew Point 25 °F    
Average Humidity 25    
Maximum Humidity 44    
Minimum Humidity 14    
Precipitation  
Precipitation 0.00 in - - ()
Sea Level Pressure  
Sea Level Pressure 29.98 in    
Wind  
Wind Speed 6 mph (NW)    
Max Wind Speed 9 mph    
Max Gust Speed -    
Visibility 10 miles    
Events      
Averages and records for this station are not official NWS values.
T = Trace of Precipitation, MM = Missing Value Source: NWS Daily Summary

Daily Weather History Graph

Daily Weather History Graph

Search for Another Location

Airport or City:

Trip Planner

Search our weather history database for the weather conditions in past years. The results will help you decide how hot, cold, wet, or windy it might be!

Date:

Astronomy

Mar. 12, 2014 Rise Set
Actual Time 6:44 AM MST 6:36 PM MST
Civil Twilight 6:20 AM MST 7:01 PM MST
Nautical Twilight 5:51 AM MST 7:29 PM MST
Astronomical Twilight 5:22 AM MST 7:58 PM MST
Moon 3:18 PM MST (3/12) 4:10 AM MST (3/12)
Length of Visible Light 12h 40m
Length of Day
11h 51m
Waxing Gibbous, 86% of the Moon is Illuminated
Mar 12
Waxing Gibbous
Mar 16
Full
Mar 23
Last Quarter
Mar 30
New
Apr 7
First Quarter

Hourly Weather History & Observations

Time (MST) Temp. Dew Point Humidity Pressure Visibility Wind Dir Wind Speed Gust Speed Precip Events Conditions
12:15 AM 59.0 °F 15.8 °F 19% 29.96 in 10.0 mi North 9.2 mph - N/A   Scattered Clouds
12:35 AM 50.0 °F 24.8 °F 37% 29.96 in 10.0 mi WNW 8.1 mph - N/A   Mostly Cloudy
12:55 AM 53.6 °F 19.4 °F 26% 29.96 in 10.0 mi NW 6.9 mph - N/A   Mostly Cloudy
1:15 AM 51.8 °F 19.4 °F 28% 29.96 in 10.0 mi NW 6.9 mph - N/A   Scattered Clouds
1:35 AM 51.8 °F 19.4 °F 28% 29.96 in 10.0 mi NW 6.9 mph - N/A   Mostly Cloudy
1:55 AM 51.8 °F 21.2 °F 30% 29.97 in 10.0 mi NW 4.6 mph - N/A   Scattered Clouds
2:15 AM 48.2 °F 23.0 °F 37% 29.96 in 10.0 mi NNW 5.8 mph - N/A   Partly Cloudy
2:35 AM 53.6 °F 19.4 °F 26% 29.96 in 10.0 mi NNW 5.8 mph - N/A   Partly Cloudy
2:55 AM 51.8 °F 21.2 °F 30% 29.96 in 10.0 mi NNW 8.1 mph - N/A   Clear
3:15 AM 51.8 °F 19.4 °F 28% 29.96 in 10.0 mi NNW 8.1 mph - N/A   Clear
3:35 AM 50.0 °F 19.4 °F 30% 29.96 in 10.0 mi North 9.2 mph - N/A   Clear
3:55 AM 51.8 °F 17.6 °F 26% 29.96 in 10.0 mi North 6.9 mph - N/A   Clear
4:15 AM 50.0 °F 19.4 °F 30% 29.97 in 10.0 mi NNW 8.1 mph - N/A   Clear
4:35 AM 50.0 °F 19.4 °F 30% 29.97 in 10.0 mi North 8.1 mph - N/A   Clear
4:55 AM 50.0 °F 19.4 °F 30% 29.98 in 10.0 mi NNW 6.9 mph - N/A   Clear
5:15 AM 48.2 °F 19.4 °F 32% 29.98 in 10.0 mi NNW 6.9 mph - N/A   Clear
5:35 AM 48.2 °F 21.2 °F 34% 29.99 in 10.0 mi NNW 8.1 mph - N/A   Clear
5:55 AM 48.2 °F 19.4 °F 32% 30.00 in 10.0 mi North 9.2 mph - N/A   Clear
6:15 AM 50.0 °F 17.6 °F 28% 30.00 in 10.0 mi North 9.2 mph - N/A   Clear
6:35 AM 50.0 °F 17.6 °F 28% 30.01 in 10.0 mi NNW 6.9 mph - N/A   Clear
6:55 AM 48.2 °F 19.4 °F 32% 30.01 in 10.0 mi NNW 5.8 mph - N/A   Clear
7:15 AM 48.2 °F 21.2 °F 34% 30.02 in 10.0 mi North 5.8 mph - N/A   Clear
7:35 AM 50.0 °F 23.0 °F 35% 30.02 in 10.0 mi North 3.5 mph - N/A   Clear
7:55 AM 53.6 °F 23.0 °F 30% 30.03 in 10.0 mi North 4.6 mph - N/A   Clear
8:15 AM 53.6 °F 23.0 °F 30% 30.04 in 10.0 mi North 4.6 mph - N/A   Clear
8:35 AM 55.4 °F 23.0 °F 29% 30.05 in 10.0 mi WNW 5.8 mph - N/A   Clear
8:55 AM 57.2 °F 21.2 °F 25% 30.05 in 10.0 mi NNW 6.9 mph - N/A   Clear
9:15 AM 59.0 °F 23.0 °F 25% 30.06 in 10.0 mi NW 4.6 mph - N/A   Clear
9:35 AM 60.8 °F 21.2 °F 22% 30.06 in 10.0 mi NNW 3.5 mph - N/A   Clear
9:55 AM 62.6 °F 23.0 °F 22% 30.06 in 10.0 mi NNW 4.6 mph - N/A   Clear
10:15 AM 64.4 °F 23.0 °F 21% 30.06 in 10.0 mi West 5.8 mph - N/A   Clear
10:35 AM 66.2 °F 23.0 °F 19% 30.06 in 10.0 mi Calm Calm - N/A   Clear
10:55 AM 68.0 °F 23.0 °F 18% 30.06 in 10.0 mi Calm Calm - N/A   Clear
11:15 AM 69.8 °F 23.0 °F 17% 30.05 in 10.0 mi ESE 4.6 mph - N/A   Clear
11:35 AM 71.6 °F 21.2 °F 15% 30.05 in 10.0 mi ESE 9.2 mph - N/A   Clear
11:55 AM 71.6 °F 24.8 °F 17% 30.04 in 10.0 mi ESE 8.1 mph - N/A   Clear
12:15 PM 71.6 °F 24.8 °F 17% 30.04 in 10.0 mi East 5.8 mph - N/A   Clear
12:35 PM 73.4 °F 24.8 °F 16% 30.03 in 10.0 mi SE 5.8 mph - N/A   Clear
12:55 PM 73.4 °F 26.6 °F 18% 30.02 in 10.0 mi Calm Calm - N/A   Clear
1:15 PM 73.4 °F 26.6 °F 18% 30.01 in 10.0 mi East 5.8 mph - N/A   Clear
1:35 PM 73.4 °F 26.6 °F 18% 30.00 in 10.0 mi SE 5.8 mph - N/A   Clear
1:55 PM 75.2 °F 26.6 °F 17% 29.99 in 10.0 mi Calm Calm - N/A   Clear
2:15 PM 75.2 °F 26.6 °F 17% 29.98 in 10.0 mi South 3.5 mph - N/A   Clear
2:35 PM 75.2 °F 28.4 °F 18% 29.98 in 10.0 mi WSW 3.5 mph - N/A   Clear
2:55 PM 75.2 °F 26.6 °F 17% 29.97 in 10.0 mi Calm Calm - N/A   Clear
3:15 PM 75.2 °F 24.8 °F 15% 29.96 in 10.0 mi South 3.5 mph - N/A   Clear
3:35 PM 77.0 °F 26.6 °F 16% 29.96 in 10.0 mi WSW 5.8 mph - N/A   Clear
3:55 PM 77.0 °F 24.8 °F 14% 29.95 in 10.0 mi WSW 6.9 mph - N/A   Clear
4:15 PM 77.0 °F 24.8 °F 14% 29.95 in 10.0 mi WSW 4.6 mph - N/A   Clear
4:35 PM 77.0 °F 24.8 °F 14% 29.94 in 10.0 mi SW 3.5 mph - N/A   Clear
4:55 PM 77.0 °F 24.8 °F 14% 29.94 in 10.0 mi WSW 3.5 mph - N/A   Clear
5:15 PM 77.0 °F 26.6 °F 16% 29.94 in 10.0 mi WSW 3.5 mph - N/A   Clear
5:35 PM 77.0 °F 26.6 °F 16% 29.93 in 10.0 mi WNW 4.6 mph - N/A   Clear
5:55 PM 77.0 °F 26.6 °F 16% 29.93 in 10.0 mi WNW 4.6 mph - N/A   Partly Cloudy
6:15 PM 75.2 °F 32.0 °F 21% 29.94 in 10.0 mi West 4.6 mph - N/A   Mostly Cloudy
6:35 PM 71.6 °F 32.0 °F 23% 29.93 in 10.0 mi West 6.9 mph - N/A   Mostly Cloudy
6:55 PM 69.8 °F 32.0 °F 25% 29.93 in 10.0 mi WNW 6.9 mph - N/A   Mostly Cloudy
7:15 PM 68.0 °F 32.0 °F 26% 29.93 in 10.0 mi WNW 8.1 mph - N/A   Overcast
7:35 PM 68.0 °F 26.6 °F 21% 29.93 in 10.0 mi WNW 5.8 mph - N/A   Overcast
7:55 PM 68.0 °F 28.4 °F 23% 29.93 in 10.0 mi WNW 6.9 mph - N/A   Overcast
8:15 PM 66.2 °F 30.2 °F 26% 29.94 in 10.0 mi WNW 6.9 mph - N/A   Overcast
8:35 PM 64.4 °F 32.0 °F 30% 29.94 in 10.0 mi North 6.9 mph - N/A   Overcast
8:55 PM 64.4 °F 32.0 °F 30% 29.94 in 10.0 mi North 5.8 mph - N/A   Overcast
9:15 PM 64.4 °F 32.0 °F 30% 29.94 in 10.0 mi North 5.8 mph - N/A   Overcast
9:35 PM 64.4 °F 32.0 °F 30% 29.94 in 10.0 mi NW 6.9 mph - N/A   Overcast
9:55 PM 62.6 °F 32.0 °F 32% 29.94 in 9.0 mi NW 9.2 mph - N/A   Overcast
10:15 PM 60.8 °F 32.0 °F 34% 29.95 in 10.0 mi NNW 5.8 mph - N/A   Overcast
10:35 PM 59.0 °F 32.0 °F 36% 29.94 in 10.0 mi NW 6.9 mph - N/A   Mostly Cloudy
10:55 PM 59.0 °F 32.0 °F 36% 29.94 in 10.0 mi NNW 8.1 mph - N/A   Partly Cloudy
11:15 PM 57.2 °F 35.6 °F 44% 29.94 in 10.0 mi North 8.1 mph - N/A   Clear
11:35 PM 57.2 °F 33.8 °F 41% 29.95 in 10.0 mi North 9.2 mph - N/A   Mostly Cloudy
11:55 PM 59.0 °F 32.0 °F 36% 29.95 in 10.0 mi North 9.2 mph - N/A   Overcast